This demonstration page uses our WeatherBlox Daily Observations layout. Learn more.

Left ArrowRight Arrow

Hourly Observations for November 23, 2015

Temp ( °F °C ) Dew Point ( °F °C ) Humidity (%) Winds ( mph kmh ) Pressure ( in mb ) Visibility ( mi km ) Precip ( " mm )
12:53 am 00:53 Clear 34 1.1 22 -5.6 61 61 Calm 30.16 1022 10 16 0.00 0.00
1:53 am 01:53 Clear 33 0.6 22 -5.6 64 64 NW 5 7 30.17 1022 10 16 0.00 0.00
2:53 am 02:53 Clear 33 0.6 21 -6.1 61 61 VRB 3 6 30.18 1022 10 16 0.00 0.00
3:53 am 03:53 Clear 32 0 21 -6.1 64 64 VRB 3 6 30.21 1023 10 16 0.00 0.00
4:53 am 04:53 Clear 32 0 21 -6.1 64 64 Calm 30.22 1023 10 16 0.00 0.00
5:53 am 05:53 Clear 32 0 21 -6.1 64 64 NNW 3 6 30.24 1024 10 16 0.00 0.00
6:53 am 06:53 Clear 31 -0.6 20 -6.7 64 64 NNW 5 7 30.26 1025 10 16 0.00 0.00
7:53 am 07:53 Sunny 32 0 21 -6.1 64 64 NNW 8 13 30.28 1025 10 16 0.00 0.00
8:53 am 08:53 Sunny 36 2.2 21 -6.1 55 55 NNW 5 7 30.29 1026 10 16 0.00 0.00
9:53 am 09:53 Sunny 41 5 20 -6.7 43 43 Calm 30.30 1026 10 16 0.00 0.00
10:53 am 10:53 Sunny 45 7.2 18 -7.8 34 34 W 7 11 30.32 1027 10 16 0.00 0.00
11:53 am 11:53 Sunny 48 8.9 20 -6.7 33 33 NW 6 9 30.30 1026 10 16 0.00 0.00
12:53 pm 12:53 Sunny 51 10.6 19 -7.2 28 28 VRB 7 11 30.28 1025 10 16 0.00 0.00
1:53 pm 13:53 Sunny 53 11.7 18 -7.8 25 25 WNW 9 15 30.26 1025 10 16 0.00 0.00
2:53 pm 14:53 Sunny 53 11.7 20 -6.7 27 27 Calm 30.25 1024 10 16 0.00 0.00
3:53 pm 15:53 Sunny 53 11.7 20 -6.7 27 27 WNW 9 15 30.25 1024 10 16 0.00 0.00
4:53 pm 16:53 Sunny 53 11.7 21 -6.1 28 28 NNW 3 6 30.26 1025 10 16 0.00 0.00
5:53 pm 17:53 Clear 47 8.3 25 -3.9 42 42 Calm 30.28 1025 10 16 0.00 0.00
6:53 pm 18:53 Clear 42 5.6 28 -2.2 58 58 Calm 30.30 1026 10 16 0.00 0.00
7:53 pm 19:53 Clear 42 5.6 27 -2.8 55 55 Calm 30.32 1027 10 16 0.00 0.00
8:53 pm 20:53 Clear 37 2.8 29 -1.7 73 73 Calm 30.32 1027 10 16 0.00 0.00
9:53 pm 21:53 Clear 36 2.2 30 -1.1 79 79 Calm 30.33 1027 10 16 0.00 0.00
10:53 pm 22:53 Clear 33 0.6 29 -1.7 85 85 Calm 30.34 1028 10 16 0.00 0.00
11:53 pm 23:53 Clear 32 0 29 -1.7 88 88 Calm 30.35 1028 10 16 0.00 0.00

Powered by AerisWeather